Regional Weather Roundup
Issued by NWS Goodland, KS

Home | Current Version | Previous Version | Graphics & Text | Print | Product List | Glossary On
Versions: 1 2 3 4 5 6 7 8 9 10 11 12 13 14 15 16 17 18 19 20 21 22 23 24 25 26 27 28 29 30 31 32 33 34 35 36 37 38 39 40 41 42 43 44 45 46 47 48 49 50
000
ASUS43 KGLD 270259
RWRGLD

GOODLAND FORECAST AREA HOURLY WEATHER ROUNDUP
NATIONAL WEATHER SERVICE GOODLAND KS
900 PM MDT SUN MAR 26 2017

...OFFICIAL OBSERVATIONS...

CITY           SKY/WX    TMP DP  RH WIND       PRES   REMARKS
GOODLAND KS    CLEAR     37  37 100 S5        29.94R
HILL CITY KS   CLOUDY    46  45  96 N5        29.95R
IMPERIAL NEB   MOCLDY    45  41  86 SW7       29.92R
MCCOOK NEB     CLOUDY    46  42  86 SW6       29.93R
AKRON CO       PTCLDY    40  35  83 NW10      29.96R
BURLINGTON CO  CLEAR     39  37  92 S7        29.95R
LIMON CO       CLEAR     36  33  89 CALM      29.99R
$$

...UNOFFICIAL OBSERVATIONS...

CITY           SKY/WX    TMP DP  RH WIND       PRES   REMARKS
LENORA KS        N/A     44  32  63 CALM        N/A
NORTON KS      LGT RAIN  45  41  87 CALM      29.93S
SHARON SPRINGS   N/A     41  40  96 NE5         N/A
TRENTON NEB      N/A     45  32  60 SW5         N/A
YUMA CO        MOCLDY    41  36  81 CALM      29.95R
$$



USA.gov is the U.S. government's official web portal to all federal, state and local government web resources and services.